Weather History for Jordan, MT

Change the Weather History Date:

Saturday, December 29, 2012

  Actual Average Record
Temperature  
Mean Temperature 20 °F 17 °F  
Max Temperature 32 °F 29 °F 59 °F (1956)
Min Temperature 8 °F 4 °F -35 °F (1968)
Degree Days  
Heating Degree Days 45 48  
Month to date heating degree days 1231 1333  
Since 1 July heating degree days 3001 3351  
Cooling Degree Days 0 0  
Month to date cooling degree days 0 0  
Year to date cooling degree days 728 421  
Moisture  
Dew Point 11 °F    
Average Humidity 71    
Maximum Humidity 88    
Minimum Humidity 53    
Precipitation  
Precipitation 0.00 in 0.01 in 0.35 in (2005)
Month to date precipitation 0.32 0.26  
Year to date precipitation 8.01 12.64  
Snow  
Snow 0.00 in - - ()
Month to date snowfall 0.0  
Since 1 July snowfall 0.0  
Snow Depth 0.00 in    
Sea Level Pressure  
Sea Level Pressure 30.10 in    
Wind  
Wind Speed 6 mph (West)    
Max Wind Speed 14 mph    
Max Gust Speed 15 mph    
T = Trace of Precipitation, MM = Missing Value Source: NWS Daily Summary

Daily Weather History Graph

Daily Weather History Graph

Search for Another Location

Airport:

Trip Planner

Search our weather history database for the weather conditions in past years. The results will help you decide how hot, cold, wet, or windy it might be!

Date:

Astronomy

Dec. 29, 2012 Rise Set
Actual Time 7:54 AM MST 4:25 PM MST
Civil Twilight 7:19 AM MST 5:01 PM MST
Nautical Twilight 6:40 AM MST 5:40 PM MST
Astronomical Twilight 6:02 AM MST 6:17 PM MST
Moon 6:08 PM MST (12/29) 8:23 AM MST (12/29)
Length of Visible Light 9h 42m
Length of Day
8h 30m
Full, 98% of the Moon is Illuminated
Dec 29
Full
Jan 4
Last Quarter
Jan 11
New
Jan 18
First Quarter
Jan 26
Full

Hourly Weather History & Observations

Time (MST) Temp. Windchill Dew Point Humidity Pressure Visibility Wind Dir Wind Speed Gust Speed Precip Events Conditions
12:48 AM 10.9 °F -0.8 °F 7.0 °F 84% 30.12 in - West 8.1 mph - N/A   Unknown
1:48 AM 15.1 °F 1.8 °F 10.0 °F 80% 30.10 in - West 11.5 mph - N/A   Unknown
2:48 AM 14.0 °F 2.0 °F 9.0 °F 80% 30.12 in - West 9.2 mph - N/A   Unknown
3:48 AM 12.9 °F -0.2 °F 8.1 °F 81% 30.13 in - West 10.4 mph - N/A   Unknown
4:48 AM 17.1 °F 3.0 °F 9.0 °F 71% 30.14 in - WNW 13.8 mph - N/A   Unknown
5:48 AM 15.1 °F 3.3 °F 8.1 °F 74% 30.16 in - WNW 9.2 mph - N/A   Unknown
6:48 AM 15.1 °F 2.5 °F 8.1 °F 74% 30.16 in - WNW 10.4 mph - N/A   Unknown
7:48 AM 9.0 °F -0.9 °F 3.9 °F 80% 30.16 in - WSW 5.8 mph - N/A   Unknown
8:48 AM 12.9 °F 2.6 °F 6.1 °F 74% 30.15 in - WNW 6.9 mph - N/A   Unknown
9:48 AM 19.0 °F 11.1 °F 10.0 °F 68% 30.14 in - WNW 5.8 mph - N/A   Unknown
10:48 AM 21.9 °F 15.7 °F 12.0 °F 66% 30.14 in - West 4.6 mph - N/A   Unknown
11:48 AM 30.0 °F 26.5 °F 16.0 °F 56% 30.09 in - NW 3.5 mph - N/A   Unknown
12:48 PM 30.9 °F 25.2 °F 18.0 °F 59% 30.06 in - West 5.8 mph - N/A   Unknown
1:48 PM 30.0 °F 22.4 °F 17.1 °F 59% 30.05 in - WSW 8.1 mph - N/A   Unknown
2:48 PM 30.9 °F 27.5 °F 18.0 °F 59% 30.05 in - West 3.5 mph - N/A   Unknown
3:48 PM 25.0 °F - 17.1 °F 72% 30.06 in - Calm Calm - N/A   Unknown
4:48 PM 19.0 °F - 12.9 °F 77% 30.06 in - Calm Calm - N/A   Unknown
5:48 PM 16.0 °F - 12.0 °F 84% 30.07 in - Calm Calm - N/A   Unknown
6:48 PM 15.1 °F 6.4 °F 10.9 °F 84% 30.07 in - West 5.8 mph - N/A   Unknown
7:48 PM 15.1 °F 9.4 °F 10.9 °F 84% 30.07 in - WSW 3.5 mph - N/A   Unknown
8:48 PM 18.0 °F 12.7 °F 12.9 °F 81% 30.05 in - WNW 3.5 mph - N/A   Unknown
9:48 PM 16.0 °F - 10.9 °F 81% 30.05 in - Calm Calm - N/A   Unknown
10:48 PM 15.1 °F 6.4 °F 10.0 °F 80% 30.06 in - WNW 5.8 mph - N/A   Unknown
11:48 PM 14.0 °F 2.9 °F 9.0 °F 80% 30.06 in - WNW 8.1 mph - N/A   Unknown